Location: Beckers Corners
(42.5484°N, 73.8110°W)
Time: 07:03:18
(UTC+00:00)

DIWATA 2B (PO-101) - Pass Details

Date: 06 December 2024
Orbit: 569 x 582 km, 98.1° (Epoch: 18 January)

Event Time Altitude Azimuth Distance (km) Brightness Sun altitude
Rises 22:21:34 0° 6° (N) 2,795 ? -10.7°
Reaches altitude 10° 22:23:47 10° 0° (N) 1,890 ? -11.1°
Maximum altitude 22:27:41 45° 288° (WNW) 792 ? -11.8°
Drops below altitude 10° 22:31:33 10° 216° (SW) 1,868 ? -12.4°
Sets 22:33:44 0° 210° (SSW) 2,760 ? -12.8°
